| time (UTC) | temp F | wind direction | speed MPH | gust MPH | rain 1hr in | rain 24hr in | rain mn in | humidity % | barometer mb |
| 20260904210006 | 96 | 157 | 9.0 | 13.0 | 0.00 | 0.00 | 0.00 | 41 | 1007.3 |
| 20260904204504 | 97 | 112 | 9.0 | 14.0 | 0.00 | 0.00 | 0.00 | 42 | 1007.3 |
| 20260904203504 | 97 | 157 | 12.0 | 14.0 | 0.00 | 0.00 | 0.00 | 41 | 1007.3 |
| 20260904203007 | 97 | 157 | 15.0 | 20.0 | 0.00 | 0.00 | 0.00 | 39 | 1007.3 |
| 20260904202008 | 96 | 157 | 16.0 | 19.0 | 0.00 | 0.00 | 0.00 | 41 | 1007.7 |
| 20260904201505 | 96 | 180 | 9.0 | 17.0 | 0.00 | 0.00 | 0.00 | 41 | 1008.0 |
| 20260904201008 | 96 | 180 | 16.0 | 21.0 | 0.00 | 0.00 | 0.00 | 40 | 1008.0 |
| 20260904195537 | 95 | 180 | 13.0 | 15.0 | 0.00 | 0.00 | 0.00 | 40 | 1008.3 |
| 20260904194505 | 95 | 157 | 21.0 | 23.0 | 0.00 | 0.00 | 0.00 | 40 | 1008.3 |
| 20260904192505 | 95 | 157 | 10.0 | 14.0 | 0.00 | 0.00 | 0.00 | 41 | 1008.7 |
| 20260904191008 | 95 | 135 | 4.0 | 7.0 | 0.00 | 0.00 | 0.00 | 44 | 1008.7 |
| 20260904190505 | 94 | 135 | 11.0 | 15.0 | 0.00 | 0.00 | 0.00 | 44 | 1009.0 |
| 20260904185008 | 94 | 157 | 18.0 | 24.0 | 0.00 | 0.00 | 0.00 | 44 | 1009.0 |
| 20260904183505 | 94 | 135 | 12.0 | 17.0 | 0.00 | 0.00 | 0.00 | 43 | 1010.0 |
| 20260904182504 | 92 | 157 | 14.0 | 20.0 | 0.00 | 0.00 | 0.00 | 44 | 1010.0 |
| 20260904182008 | 92 | 180 | 14.0 | 17.0 | 0.00 | 0.00 | 0.00 | 44 | 1010.0 |
| 20260904181010 | 92 | 157 | 12.0 | 15.0 | 0.00 | 0.00 | 0.00 | 45 | 1010.0 |
| 20260904175505 | 91 | 202 | 9.0 | 11.0 | 0.00 | 0.00 | 0.00 | 44 | 1010.4 |
| 20260904173008 | 91 | 180 | 10.0 | 17.0 | 0.00 | 0.00 | 0.00 | 49 | 1010.7 |
| 20260904172505 | 90 | 180 | 16.0 | 20.0 | 0.00 | 0.00 | 0.00 | 51 | 1011.0 |
| 20260904171505 | 90 | 157 | 11.0 | 13.0 | 0.00 | 0.00 | 0.00 | 52 | 1010.7 |
| 20260904171008 | 91 | 202 | 11.0 | 15.0 | 0.00 | 0.00 | 0.00 | 52 | 1010.7 |
| 20260904164506 | 89 | 180 | 13.0 | 28.0 | 0.00 | 0.00 | 0.00 | 56 | 1011.4 |
| 20260904162507 | 87 | 157 | 12.0 | 15.0 | 0.00 | 0.00 | 0.00 | 62 | 1011.7 |
| 20260904162004 | 87 | 180 | 10.0 | 13.0 | 0.00 | 0.00 | 0.00 | 61 | 1011.7 |
| 20260904160511 | 87 | 180 | 15.0 | 19.0 | 0.00 | 0.00 | 0.00 | 63 | 1011.7 |
| 20260904160005 | 86 | 180 | 12.0 | 18.0 | 0.00 | 0.00 | 0.00 | 63 | 1011.7 |
| 20260904155511 | 86 | 157 | 12.0 | 17.0 | 0.00 | 0.00 | 0.00 | 65 | 1012.4 |
| 20260904154530 | 84 | 180 | 15.0 | 18.0 | 0.00 | 0.00 | 0.00 | 68 | 1012.7 |
| 20260904153009 | 84 | 180 | 13.0 | 16.0 | 0.00 | 0.00 | 0.00 | 73 | 1013.1 |
| 20260904152004 | 83 | 157 | 15.0 | 18.0 | 0.00 | 0.00 | 0.00 | 73 | 1013.1 |
| 20260904151005 | 83 | 157 | 10.0 | 13.0 | 0.00 | 0.00 | 0.00 | 78 | 1013.1 |
| 20260904150507 | 83 | 180 | 10.0 | 14.0 | 0.00 | 0.00 | 0.00 | 79 | 1012.7 |
| 20260904150006 | 84 | 157 | 9.0 | 13.0 | 0.00 | 0.00 | 0.00 | 79 | 1012.7 |
| 20260904144503 | 84 | 180 | 11.0 | 15.0 | 0.00 | 0.00 | 0.00 | 80 | 1012.4 |
| 20260904144006 | 84 | 180 | 12.0 | 16.0 | 0.00 | 0.00 | 0.00 | 80 | 1012.4 |
| 20260904143503 | 83 | 180 | 12.0 | 15.0 | 0.00 | 0.00 | 0.00 | 81 | 1012.4 |
| 20260904143006 | 83 | 157 | 12.0 | 15.0 | 0.00 | 0.00 | 0.00 | 83 | 1012.4 |
| 20260904142007 | 82 | 180 | 13.0 | 15.0 | 0.00 | 0.00 | 0.00 | 87 | 1012.7 |
| 20260904135504 | 80 | 157 | 11.0 | 13.0 | 0.00 | 0.00 | 0.00 | 93 | 1013.4 |
| 20260904135008 | 80 | 157 | 10.0 | 12.0 | 0.00 | 0.00 | 0.00 | 93 | 1013.4 |
| 20260904133004 | 79 | 135 | 7.0 | 11.0 | 0.00 | 0.00 | 0.00 | 97 | 1013.8 |
| 20260904132508 | 78 | 157 | 8.0 | 10.0 | 0.00 | 0.00 | 0.00 | 97 | 1013.8 |
| 20260904131508 | 78 | 157 | 8.0 | 11.0 | 0.00 | 0.00 | 0.00 | 97 | 1013.4 |
| 20260904131005 | 78 | 157 | 8.0 | 12.0 | 0.00 | 0.00 | 0.00 | 97 | 1013.4 |
| 20260904130005 | 78 | 157 | 5.0 | 6.0 | 0.00 | 0.00 | 0.00 | 97 | 1013.4 |
| 20260904125508 | 78 | 157 | 5.0 | 8.0 | 0.00 | 0.00 | 0.00 | 98 | 1013.4 |
| 20260904124006 | 78 | 157 | 6.0 | 8.0 | 0.00 | 0.00 | 0.00 | 97 | 1013.4 |
| 20260904123007 | 78 | 157 | 5.0 | 6.0 | 0.00 | 0.00 | 0.00 | 97 | 1013.4 |
| 20260904122504 | 78 | 135 | 5.0 | 7.0 | 0.00 | 0.00 | 0.00 | 98 | 1013.4 |
| 20260904122007 | 78 | 135 | 4.0 | 6.0 | 0.00 | 0.00 | 0.00 | 97 | 1013.4 |
| 20260904121504 | 78 | 135 | 5.0 | 7.0 | 0.00 | 0.00 | 0.00 | 97 | 1013.4 |
| 20260904115008 | 78 | 157 | 6.0 | 8.0 | 0.00 | 0.00 | 0.00 | 97 | 1013.1 |
| 20260904113532 | 78 | 157 | 8.0 | 10.0 | 0.00 | 0.00 | 0.00 | 97 | 1013.1 |
| 20260904112009 | 78 | 157 | 6.0 | 7.0 | 0.00 | 0.00 | 0.00 | 97 | 1013.1 |
| 20260904111506 | 78 | 157 | 6.0 | 8.0 | 0.00 | 0.00 | 0.00 | 97 | 1013.1 |
| 20260904110507 | 78 | 157 | 6.0 | 8.0 | 0.00 | 0.00 | 0.00 | 96 | 1013.1 |
| 20260904105508 | 78 | 180 | 2.0 | 3.0 | 0.00 | 0.00 | 0.00 | 95 | 1013.1 |
| 20260904103007 | 78 | 135 | 5.0 | 7.0 | 0.00 | 0.00 | 0.00 | 95 | 1013.1 |
| 20260904101504 | 78 | 157 | 6.0 | 7.0 | 0.00 | 0.00 | 0.00 | 94 | 1012.7 |
| 20260904094009 | 79 | 157 | 8.0 | 10.0 | 0.00 | 0.00 | 0.00 | 92 | 1012.4 |
| 20260904093035 | 79 | 180 | 10.0 | 13.0 | 0.00 | 0.00 | 0.00 | 92 | 1012.4 |
| 20260904092506 | 79 | 157 | 9.0 | 11.0 | 0.00 | 0.00 | 0.00 | 92 | 1012.4 |
| 20260904091005 | 79 | 157 | 10.0 | 12.0 | 0.00 | 0.00 | 0.00 | 91 | 1012.4 |
| 20260904090503 | 78 | 157 | 8.0 | 10.0 | 0.00 | 0.00 | 0.00 | 92 | 1012.4 |
| 20260904090006 | 79 | 157 | 6.0 | 9.0 | 0.00 | 0.00 | 0.00 | 90 | 1012.4 |
| 20260904085508 | 78 | 157 | 7.0 | 9.0 | 0.00 | 0.00 | 0.00 | 91 | 1012.7 |
| 20260904081507 | 79 | 157 | 7.0 | 9.0 | 0.00 | 0.00 | 0.00 | 88 | 1012.4 |
| 20260904074008 | 79 | 157 | 7.0 | 11.0 | 0.00 | 0.00 | 0.00 | 86 | 1012.4 |
| 20260904072005 | 79 | 180 | 8.0 | 10.0 | 0.00 | 0.00 | 0.00 | 84 | 1012.4 |
| 20260904070507 | 79 | 157 | 4.0 | 7.0 | 0.00 | 0.00 | 0.00 | 83 | 1012.4 |
| 20260904070006 | 79 | 157 | 8.0 | 10.0 | 0.00 | 0.00 | 0.00 | 82 | 1012.4 |
| 20260904064006 | 79 | 157 | 7.0 | 9.0 | 0.00 | 0.00 | 0.00 | 79 | 1012.7 |
| 20260904063503 | 79 | 157 | 6.0 | 9.0 | 0.00 | 0.00 | 0.00 | 79 | 1012.7 |
| 20260904054505 | 79 | 157 | 7.0 | 8.0 | 0.00 | 0.00 | 0.00 | 76 | 1012.7 |
| 20260904053002 | 79 | 157 | 7.0 | 9.0 | 0.00 | 0.00 | 0.00 | 76 | 1012.7 |
| 20260904052029 | 79 | 157 | 6.0 | 9.0 | 0.00 | 0.00 | 0.00 | 76 | 1012.4 |
| 20260904051507 | 79 | 157 | 4.0 | 5.0 | 0.00 | 0.00 | 0.00 | 76 | 1012.4 |
| 20260904050004 | 80 | 157 | 8.0 | 12.0 | 0.00 | 0.00 | 0.00 | 76 | 1012.4 |
| 20260904043504 | 80 | 112 | 6.0 | 9.0 | 0.00 | 0.00 | 0.00 | 75 | 1012.4 |
| 20260904041504 | 80 | 135 | 7.0 | 10.0 | 0.00 | 0.00 | 0.00 | 73 | 1012.1 |
| 20260904040006 | 81 | 157 | 6.0 | 8.0 | 0.00 | 0.00 | 0.00 | 72 | 1012.1 |
| 20260904034009 | 81 | 112 | 6.0 | 9.0 | 0.00 | 0.00 | 0.00 | 71 | 1012.1 |
| 20260904033004 | 81 | 157 | 10.0 | 14.0 | 0.00 | 0.00 | 0.00 | 72 | 1012.1 |
| 20260904032005 | 82 | 157 | 9.0 | 10.0 | 0.00 | 0.00 | 0.00 | 74 | 1011.7 |
| 20260904031004 | 82 | 135 | 7.0 | 11.0 | 0.00 | 0.00 | 0.00 | 74 | 1012.1 |
| 20260904030005 | 82 | 157 | 6.0 | 10.0 | 0.00 | 0.00 | 0.00 | 73 | 1011.7 |
| 20260904025508 | 82 | 157 | 9.0 | 16.0 | 0.00 | 0.00 | 0.00 | 74 | 1011.7 |
| 20260904025005 | 82 | 157 | 9.0 | 12.0 | 0.00 | 0.00 | 0.00 | 73 | 1011.7 |
| 20260904024005 | 83 | 112 | 12.0 | 16.0 | 0.00 | 0.00 | 0.00 | 72 | 1011.4 |
| 20260904023503 | 83 | 135 | 9.0 | 13.0 | 0.00 | 0.00 | 0.00 | 72 | 1011.4 |
| 20260904022007 | 84 | 112 | 12.0 | 19.0 | 0.00 | 0.00 | 0.00 | 68 | 1010.7 |
| 20260904020504 | 84 | 112 | 9.0 | 12.0 | 0.00 | 0.00 | 0.00 | 66 | 1010.4 |
| 20260904020007 | 84 | 112 | 7.0 | 10.0 | 0.00 | 0.00 | 0.00 | 66 | 1010.4 |
| 20260904015504 | 84 | 157 | 6.0 | 10.0 | 0.00 | 0.00 | 0.00 | 66 | 1010.0 |
| 20260904013008 | 85 | 135 | 9.0 | 13.0 | 0.00 | 0.00 | 0.00 | 65 | 1009.7 |
| 20260904012505 | 85 | 112 | 9.0 | 16.0 | 0.00 | 0.00 | 0.00 | 65 | 1009.4 |
| 20260904011505 | 85 | 112 | 10.0 | 13.0 | 0.00 | 0.00 | 0.00 | 65 | 1009.4 |
| 20260904011033 | 86 | 112 | 8.0 | 10.0 | 0.00 | 0.00 | 0.00 | 64 | 1009.4 |
| 20260904005505 | 86 | 157 | 9.0 | 14.0 | 0.00 | 0.00 | 0.00 | 63 | 1009.0 |
| 20260904004506 | 87 | 112 | 12.0 | 17.0 | 0.00 | 0.00 | 0.00 | 63 | 1008.7 |
| 20260904004009 | 87 | 157 | 12.0 | 16.0 | 0.00 | 0.00 | 0.00 | 61 | 1008.7 |
| 20260904003505 | 87 | 112 | 9.0 | 14.0 | 0.00 | 0.00 | 0.00 | 61 | 1008.7 |
| 20260904002507 | 87 | 157 | 9.0 | 13.0 | 0.00 | 0.00 | 0.00 | 62 | 1008.7 |
| 20260904000507 | 88 | 112 | 15.0 | 20.0 | 0.00 | 0.00 | 0.00 | 62 | 1008.7 |
| 20260904000005 | 88 | 157 | 9.0 | 13.0 | 0.00 | 0.00 | 0.00 | 62 | 1008.7 |
| 20260903235504 | 88 | 180 | 13.0 | 16.0 | 0.00 | 0.00 | 0.00 | 62 | 1008.3 |
| 20260903234008 | 89 | 112 | 9.0 | 12.0 | 0.00 | 0.00 | 0.00 | 60 | 1008.0 |
| 20260903233505 | 89 | 112 | 11.0 | 16.0 | 0.00 | 0.00 | 0.00 | 60 | 1007.7 |
| 20260903232008 | 90 | 112 | 13.0 | 16.0 | 0.00 | 0.00 | 0.00 | 57 | 1007.7 |
| 20260903231506 | 90 | 90 | 10.0 | 15.0 | 0.00 | 0.00 | 0.00 | 57 | 1007.0 |
| 20260903224502 | 93 | 157 | 13.0 | 19.0 | 0.00 | 0.00 | 0.00 | 52 | 1006.3 |
| 20260903224006 | 93 | 157 | 9.0 | 13.0 | 0.00 | 0.00 | 0.00 | 51 | 1006.3 |
| 20260903221504 | 93 | 135 | 8.0 | 12.0 | 0.00 | 0.00 | 0.00 | 53 | 1006.3 |
| 20260903220504 | 93 | 157 | 10.0 | 16.0 | 0.00 | 0.00 | 0.00 | 54 | 1007.0 |
| 20260903215505 | 92 | 157 | 14.0 | 18.0 | 0.00 | 0.00 | 0.00 | 54 | 1006.6 |
| 20260903215008 | 92 | 112 | 10.0 | 14.0 | 0.00 | 0.00 | 0.00 | 55 | 1006.6 |
| 20260903214505 | 91 | 157 | 11.0 | 16.0 | 0.00 | 0.00 | 0.00 | 58 | 1007.3 |
| 20260903214008 | 90 | 112 | 10.0 | 14.0 | 0.00 | 0.00 | 0.00 | 58 | 1007.3 |
| 20260903213505 | 90 | 112 | 13.0 | 20.0 | 0.00 | 0.00 | 0.00 | 59 | 1007.3 |
| 20260903213009 | 90 | 135 | 13.0 | 20.0 | 0.00 | 0.00 | 0.00 | 59 | 1007.3 |
| 20260903212506 | 89 | 112 | 14.0 | 19.0 | 0.00 | 0.00 | 0.00 | 61 | 1007.7 |